Location: *
(53.4003°S, 165.3236°W)
Time: 03:28:08
(UTC+00:00)

Cosmos 2322 Rocket - Pass Details

Date: 11 December 2023
Orbit: 832 x 850 km, 71.0° (Epoch: 24 February)

Event Time Altitude Azimuth Distance (km) Brightness Sun altitude
Rises 12:35:32 0° 224° (SW) 3,418 5.7 -10.5°
Reaches altitude 10° 12:39:37 10° 253° (WSW) 2,473 4.6 -10.3°
Maximum altitude 12:41:43 12° 275° (W) 2,317 4.2 -10.1°
Drops below altitude 10° 12:43:48 10° 297° (WNW) 2,462 4.2 -10.0°
Enters shadow 12:44:40 - 304° (NW) 2,600 4.2 -10.0°
